Location: Newark
(42.7133°N, 87.7910°W)
Time: 00:44:28
(UTC+00:00)

Transit 4A - Pass Details

Date: 19 September 2019
Orbit: 867 x 978 km, 66.8° (Epoch: 18 October)

Event Time Altitude Azimuth Distance (km) Brightness Sun altitude
Rises 01:35:37 0° 333° (NNW) 3,608 11.7 -18.7°
Reaches altitude 10° 01:38:24 10° 342° (NNW) 2,643 10.8 -19.2°
Maximum altitude 01:44:03 37° 49° (NE) 1,385 8.6 -20.2°
Enters shadow 01:45:34 32° 80° (E) 1,503 8.5 -20.4°
